Zurück zum Katalog

FENGYUN 1C DEB

AktivPO
NORAD 41005·DEBRIS·🇨🇳 China

Gestartet May 10, 1999 von Taiyuan Satellite Launch Center

Loading…

Nächste Überflüge (nächste 24 Stunden)

TLE

AktuellSource: Space-Track

Epoche: Sep 11, 2026, 19:03 UTC

1 41005U 99025EXK 26254.79416720  .00001260  00000-0  70679-3 0  9991
2 41005  98.9372 272.4299 0570210 113.7901 252.4085 13.51635310560681

Verfolge FENGYUN 1C DEB in Echtzeit mit AllMySat

Download on the App Store